International Skating Union - Official Site

Essent ISU World Cup Salt lake City
November 15-17, 2013

Draw | Lap Times | Index | World Cup

Referee: Susan  SANDVIG-SHOBE  (USA)
Starter: Yves  BELANGER  (CAN)
StartTime: EndTime: Air Temp: Ice Temp: Humidity:
14:54 15:53 18℃ -8℃ 28
Result 5000m Men Division A
Rankings as of Nov 17 2013 3:55PM
Rank: No.: Name: Nation: Time: Behind: Points:
1 102 Sven  Kramer NED NED 6:04.59200m - 18.43 - (18.4)
600m - 47.63 - (29.2)
1000m - 1:16.38 - (28.7)
1400m - 1:45.55 - (29.1)
1800m - 2:14.24 - (28.6)
2200m - 2:43.65 - (29.4)
2600m - 3:12.51 - (28.8)
3000m - 3:41.76 - (29.2)
3400m - 4:10.89 - (29.1)
3800m - 4:40.06 - (29.1)
4200m - 5:07.75 - (27.6)
4600m - 5:36.07 - (28.3)
5000m - 6:04.59 - (28.5)
100
2 96 Bob  de Jong NED NED 6:07.43200m - 19.20 - (19.2)
600m - 48.04 - (28.8)
1000m - 1:17.39 - (29.3)
1400m - 1:46.43 - (29.0)
1800m - 2:15.58 - (29.1)
2200m - 2:44.43 - (28.8)
2600m - 3:13.53 - (29.1)
3000m - 3:42.54 - (29.0)
3400m - 4:11.54 - (29.0)
3800m - 4:40.55 - (29.0)
4200m - 5:09.54 - (28.9)
4600m - 5:38.39 - (28.8)
5000m - 6:07.43 - (29.0)
2.84 80
3 94 Jorrit  Bergsma NED NED 6:08.13200m - 19.13 - (19.1)
600m - 47.55 - (28.4)
1000m - 1:16.44 - (28.8)
1400m - 1:45.34 - (28.9)
1800m - 2:14.37 - (29.0)
2200m - 2:43.30 - (28.9)
2600m - 3:12.56 - (29.2)
3000m - 3:41.72 - (29.1)
3400m - 4:10.96 - (29.2)
3800m - 4:39.78 - (28.8)
4200m - 5:08.80 - (29.0)
4600m - 5:38.05 - (29.2)
5000m - 6:08.13 - (30.0)
3.54 70
4 142 Ivan  Skobrev RUS RUS 6:08.77200m - 19.17 - (19.1)
600m - 48.32 - (29.1)
1000m - 1:17.70 - (29.3)
1400m - 1:47.21 - (29.5)
1800m - 2:16.68 - (29.4)
2200m - 2:46.08 - (29.4)
2600m - 3:15.57 - (29.4)
3000m - 3:44.94 - (29.3)
3400m - 4:13.94 - (29.0)
3800m - 4:42.42 - (28.4)
4200m - 5:10.73 - (28.3)
4600m - 5:39.39 - (28.6)
5000m - 6:08.77 - (29.3)
4.18 60
5 155 Jonathan  Kuck USA USA 6:09.73200m - 19.22 - (19.2)
600m - 47.55 - (28.3)
1000m - 1:16.41 - (28.8)
1400m - 1:45.28 - (28.8)
1800m - 2:14.48 - (29.2)
2200m - 2:43.54 - (29.0)
2600m - 3:12.75 - (29.2)
3000m - 3:41.94 - (29.1)
3400m - 4:11.26 - (29.3)
3800m - 4:40.79 - (29.5)
4200m - 5:10.34 - (29.5)
4600m - 5:39.66 - (29.3)
5000m - 6:09.73 - (30.0)
5.14 50
6 115 Sverre  Lunde Pedersen NOR NOR 6:10.47200m - 18.69 - (18.6)
600m - 47.49 - (28.8)
1000m - 1:16.45 - (28.9)
1400m - 1:45.80 - (29.3)
1800m - 2:15.04 - (29.2)
2200m - 2:44.36 - (29.3)
2600m - 3:13.77 - (29.4)
3000m - 3:43.11 - (29.3)
3400m - 4:12.13 - (29.0)
3800m - 4:41.48 - (29.3)
4200m - 5:10.46 - (28.9)
4600m - 5:39.96 - (29.5)
5000m - 6:10.47 - (30.5)
5.88 45
7 90 Seung-Hoon  Lee KOR KOR 6:10.82200m - 19.29 - (19.2)
600m - 48.48 - (29.1)
1000m - 1:17.56 - (29.0)
1400m - 1:47.00 - (29.4)
1800m - 2:16.16 - (29.1)
2200m - 2:45.52 - (29.3)
2600m - 3:14.83 - (29.3)
3000m - 3:44.44 - (29.6)
3400m - 4:13.73 - (29.2)
3800m - 4:43.08 - (29.3)
4200m - 5:11.99 - (28.9)
4600m - 5:41.12 - (29.1)
5000m - 6:10.82 - (29.7)
6.23 40
8 144 Denis  Yuskov RUS RUS 6:11.79200m - 17.91 - (17.9)
600m - 45.31 - (27.4)
1000m - 1:12.99 - (27.6)
1400m - 1:40.81 - (27.8)
1800m - 2:08.94 - (28.1)
2200m - 2:37.42 - (28.4)
2600m - 3:06.54 - (29.1)
3000m - 3:36.40 - (29.8)
3400m - 4:06.87 - (30.4)
3800m - 4:37.69 - (30.8)
4200m - 5:08.82 - (31.1)
4600m - 5:40.12 - (31.3)
5000m - 6:11.79 - (31.6)
7.20 35
9 39 Alexis  Contin FRA FRA 6:12.30200m - 18.75 - (18.7)
600m - 46.84 - (28.0)
1000m - 1:15.51 - (28.6)
1400m - 1:44.53 - (29.0)
1800m - 2:13.51 - (28.9)
2200m - 2:42.60 - (29.0)
2600m - 3:11.71 - (29.1)
3000m - 3:41.02 - (29.3)
3400m - 4:10.70 - (29.6)
3800m - 4:40.62 - (29.9)
4200m - 5:10.73 - (30.1)
4600m - 5:41.34 - (30.6)
5000m - 6:12.30 - (30.9)
7.71 30
10 5 Bart  Swings BEL BEL 6:13.37200m - 18.48 - (18.4)
600m - 46.94 - (28.4)
1000m - 1:15.84 - (28.9)
1400m - 1:45.10 - (29.2)
1800m - 2:14.31 - (29.2)
2200m - 2:43.65 - (29.3)
2600m - 3:12.92 - (29.2)
3000m - 3:42.37 - (29.4)
3400m - 4:12.10 - (29.7)
3800m - 4:41.93 - (29.8)
4200m - 5:12.03 - (30.1)
4600m - 5:42.42 - (30.3)
5000m - 6:13.37 - (30.9)
8.78 25
11 43 Patrick  Beckert GER GER 6:14.05200m - 18.79 - (18.7)
600m - 47.21 - (28.4)
1000m - 1:16.25 - (29.0)
1400m - 1:45.98 - (29.7)
1800m - 2:15.76 - (29.7)
2200m - 2:45.64 - (29.8)
2600m - 3:15.79 - (30.1)
3000m - 3:45.76 - (29.9)
3400m - 4:15.48 - (29.7)
3800m - 4:45.34 - (29.8)
4200m - 5:14.96 - (29.6)
4600m - 5:44.63 - (29.6)
5000m - 6:14.05 - (29.4)
9.46 21
12 95 Jan  Blokhuijsen NED NED 6:15.51200m - 18.40 - (18.4)
600m - 47.32 - (28.9)
1000m - 1:16.60 - (29.2)
1400m - 1:46.24 - (29.6)
1800m - 2:15.63 - (29.3)
2200m - 2:45.37 - (29.7)
2600m - 3:15.08 - (29.7)
3000m - 3:45.02 - (29.9)
3400m - 4:14.72 - (29.7)
3800m - 4:44.59 - (29.8)
4200m - 5:14.72 - (30.1)
4600m - 5:44.97 - (30.2)
5000m - 6:15.51 - (30.5)
10.92 18
13 45 Moritz  Geisreiter GER GER 6:17.91200m - 19.02 - (19.0)
600m - 47.73 - (28.7)
1000m - 1:16.89 - (29.1)
1400m - 1:46.34 - (29.4)
1800m - 2:16.21 - (29.8)
2200m - 2:46.06 - (29.8)
2600m - 3:15.63 - (29.5)
3000m - 3:45.24 - (29.6)
3400m - 4:15.17 - (29.9)
3800m - 4:45.54 - (30.3)
4200m - 5:16.27 - (30.7)
4600m - 5:47.30 - (31.0)
5000m - 6:17.91 - (30.6)
13.32 16
14 111 Håvard  Bøkko NOR NOR 6:21.76200m - 18.72 - (18.7)
600m - 48.17 - (29.4)
1000m - 1:17.58 - (29.4)
1400m - 1:47.33 - (29.7)
1800m - 2:17.19 - (29.8)
2200m - 2:47.02 - (29.8)
2600m - 3:17.04 - (30.0)
3000m - 3:47.31 - (30.2)
3400m - 4:17.45 - (30.1)
3800m - 4:47.97 - (30.5)
4200m - 5:18.74 - (30.7)
4600m - 5:49.91 - (31.1)
5000m - 6:21.76 - (31.8)
17.17 14
15 72 Dmitry  Babenko KAZ KAZ 6:24.53200m - 18.88 - (18.8)
600m - 48.51 - (29.6)
1000m - 1:18.66 - (30.1)
1400m - 1:48.66 - (30.0)
1800m - 2:18.82 - (30.1)
2200m - 2:49.08 - (30.2)
2600m - 3:19.37 - (30.2)
3000m - 3:49.57 - (30.2)
3400m - 4:20.10 - (30.5)
3800m - 4:50.66 - (30.5)
4200m - 5:21.81 - (31.1)
4600m - 5:53.28 - (31.4)
5000m - 6:24.53 - (31.2)
19.94 12
16 154 Brian  Hansen USA USA 6:24.75200m - 18.60 - (18.6)
600m - 47.42 - (28.8)
1000m - 1:17.48 - (30.0)
1400m - 1:47.70 - (30.2)
1800m - 2:17.76 - (30.0)
2200m - 2:47.84 - (30.0)
2600m - 3:18.16 - (30.3)
3000m - 3:48.45 - (30.2)
3400m - 4:18.85 - (30.4)
3800m - 4:49.43 - (30.5)
4200m - 5:20.61 - (31.1)
4600m - 5:52.40 - (31.7)
5000m - 6:24.75 - (32.3)
20.16 10